User: anonymous   Login
Location: Winthrop
(48.4780°N, 120.1850°W)
Time: 11:34:57
(UTC-07:00)
Language:

Tiros 1 - Orbit

View from above orbital plane
View from above orbital plane
View from above satellite
View from above satellite

Ground track
Ground track

The orbit data is extracted from the following two-line orbital elements,

1 00029U 60002B   24150.72616078  .00000851  00000-0  15068-3 0  9995
2 00029  48.3801 336.2708 0023801 287.9053  71.9264 14.76354554431432
Epoch (UTC): 29 May 2024 17:25:40
Eccentricity: 0.0023801
inclination: 48.3801°
perigee height: 624 km
apogee height: 657 km
right ascension of ascending node: 336.2708°
argument of perigee: 287.9053°
revolutions per day: 14.76354554
mean anomaly at epoch: 71.9264°
orbit number at epoch: 43143

The dashed part of the orbit path shows where the satellite is in the earth's shadow,  

DLR